Regional Weather Roundup
Issued by NWS Little Rock, AR

Home | Current Version | Previous Version | Text Only | Print | Product List | Glossary Off
Versions: 1 2 3 4 5 6 7 8 9 10 11 12 13 14 15 16 17 18 19 20 21 22 23 24 25 26 27 28 29 30 31 32

000
ASUS44 KLZK 280012
RWRLZK

WEATHER ROUNDUP FOR ARKANSAS
NATIONAL WEATHER SERVICE LITTLE ROCK AR
600 PM CST MON FEB 27 2017

NOTE: "FAIR" INDICATES FEW OR NO CLOUDS BELOW 12,000 FEET WITH NO
SIGNIFICANT WEATHER AND/OR OBSTRUCTIONS TO VISIBILITY.

ARZ001-003-010-029-280100-
NORTHWEST ARKANSAS

CITY           SKY/WX    TMP DP  RH WIND       PRES   REMARKS
FAYETTEVILLE   CLEAR     59  52  77 S18G26    29.92R
6HR MIN TEMP:  59; 6HR MAX TEMP:  68;

FORT SMITH     CLOUDY    64  54  69 SE10G18   29.93R
6HR MIN TEMP:  61; 6HR MAX TEMP:  70; 6HR PCP: TRACE;

HARRISON       CLOUDY    58  49  72 SE16      29.96R
6HR MIN TEMP:  58; 6HR MAX TEMP:  68; 6HR PCP: TRACE;

BENTONVILLE    CLOUDY    63  52  67 S12       29.91R
6HR MIN TEMP:  63; 6HR MAX TEMP:  68;

ROGERS         MOCLDY    62  52  69 SE13      29.91R
6HR MIN TEMP:  60; 6HR MAX TEMP:  68; 6HR PCP: TRACE;

SILOAM SPGS    MOCLDY    63  48  59 S18       29.90R
6HR MIN TEMP:  61; 6HR MAX TEMP:  66;

HIGHFILL       CLOUDY    62  52  69 S17       29.89R
6HR MIN TEMP:  62; 6HR MAX TEMP:  68; 6HR PCP: TRACE;

SPRINGDALE     PTCLDY    61  52  72 SE12G20   29.93R
$$

ARZ004-005-016-280100-
NORTH CENTRAL ARKANSAS

CITY           SKY/WX    TMP DP  RH WIND       PRES   REMARKS
BATESVILLE     CLOUDY    55  48  76 SE5       30.04S
6HR MIN TEMP:  54; 6HR MAX TEMP:  59;

FLIPPIN        CLOUDY    61  46  59 SE7       29.96S
6HR MIN TEMP:  61; 6HR MAX TEMP:  68;

MTN HOME       CLOUDY    58  49  72 S10G20    29.97S
6HR MIN TEMP:  58; 6HR MAX TEMP:  65;

$$

ARZ040-041-280100-
WEST CENTRAL ARKANSAS

CITY           SKY/WX    TMP DP  RH WIND       PRES   REMARKS
MENA           CLOUDY    63  61  94 E6        29.96R
MOUNT IDA      CLOUDY    59  55  87 VRB3      29.96F
6HR MIN TEMP:  59; 6HR MAX TEMP:  63; 6HR PCP: TRACE;

$$

ARZ009-017-025-026-028-280100-
NORTHEAST ARKANSAS

CITY           SKY/WX    TMP DP  RH WIND       PRES   REMARKS
CORNING        CLOUDY    59  54  82 S8        30.05S
JONESBORO      CLEAR     60  52  74 S9        30.04F
6HR MIN TEMP:  57; 6HR MAX TEMP:  63;

NEWPORT        CLEAR     57  52  83 S9        30.04F
6HR MIN TEMP:  56; 6HR MAX TEMP:  60;

WALNUT RIDGE   PTCLDY    57  48  72 S8        30.04S
6HR MIN TEMP:  57; 6HR MAX TEMP:  61;

BLYTHEVILLE    CLEAR     61  51  70 SE7       30.06F
6HR MIN TEMP:  60; 6HR MAX TEMP:  68;

$$

ARZ022-023-033-042-044-280100-
CENTRAL ARKANSAS

CITY           SKY/WX    TMP DP  RH WIND       PRES   REMARKS
LITTLE ROCK    MOCLDY    58  56  93 SE14      30.02S
6HR MIN TEMP:  52; 6HR MAX TEMP:  59;

N LITTLE ROCK    N/A     58  55  91 SE8       30.03F
6HR MIN TEMP:  52; 6HR MAX TEMP:  58;

JACKSONVILLE   PTCLDY    59  55  87 SE7       30.01F
6HR MIN TEMP:  54; 6HR MAX TEMP:  60;

SEARCY         MOCLDY    56  53  90 S3        30.06R
6HR MIN TEMP:  53; 6HR MAX TEMP:  59;

HOT SPRINGS    CLOUDY    60  55  83 SE10      29.99F
6HR MIN TEMP:  56; 6HR MAX TEMP:  62;

RUSSELLVILLE   CLOUDY    56  52  86 E7        29.98F
6HR MIN TEMP:  53; 6HR MAX TEMP:  59;

CLINTON        CLOUDY    55  52  88 SE5       30.02S
$$

ARZ036-280100-
EAST ARKANSAS

CITY           SKY/WX    TMP DP  RH WIND       PRES   REMARKS
WEST MEMPHIS   PTCLDY    60  51  72 S10       30.05S
6HR MIN TEMP:  60; 6HR MAX TEMP:  66;

$$

ARZ050-053-066-070-073-280100-
SOUTHWEST ARKANSAS

CITY           SKY/WX    TMP DP  RH WIND       PRES   REMARKS
ARKADELPHIA    CLOUDY    59  55  87 SE6       30.00F
6HR MIN TEMP:  57; 6HR MAX TEMP:  62; 6HR PCP:  0.01;

CAMDEN         CLOUDY    59  54  82 SE5       30.01S
TEXARKANA      CLOUDY    59  59 100 SE7       29.95S
6HR MIN TEMP:  58; 6HR MAX TEMP:  60; 6HR PCP: TRACE;

EL DORADO      CLOUDY    60  58  92 E9        30.01S
6HR MIN TEMP:  55; 6HR MAX TEMP:  61; 6HR PCP:  0.46;

DE QUEEN       CLOUDY    60  59  96 E10       29.93S
6HR MIN TEMP:  56; 6HR MAX TEMP:  62; 6HR PCP: TRACE;

$$

ARZ056-057-069-280100-
SOUTHEAST ARKANSAS

CITY           SKY/WX    TMP DP  RH WIND       PRES   REMARKS
PINE BLUFF     CLOUDY    57  54  89 SE13      30.04S
6HR MIN TEMP:  57; 6HR MAX TEMP:  63; 6HR PCP: TRACE;

STUTTGART      PTCLDY    57  46  67 SE8       30.06R
6HR MIN TEMP:  54; 6HR MAX TEMP:  63;

MONTICELLO     MOCLDY    58  56  93 E6        30.04S
6HR MIN TEMP:  55; 6HR MAX TEMP:  58; 6HR PCP:  0.06;


$$






USA.gov is the U.S. government's official web portal to all federal, state and local government web resources and services.